Terminal Aerodrome Forecast
Issued by NWS

Home | Current Version | Previous Version | Text Only | Print | Product List | Glossary On
Versions: 1 2 3 4 5 6 7 8 9 10 11 12 13 14 15 16 17 18 19 20 21 22 23 24 25 26 27 28 29 30 31 32 33 34 35 36 37 38 39 40 41 42 43 44 45 46 47
000
FTUS43 KGLD 190950 AAA
TAFMCK
TAF AMD
KMCK 190950Z 1910/2006 VRB05KT 1/4SM FZFG VV002
     FM191200 VRB04KT 1SM BR SCT005 BKN010
     FM191500 27006KT P6SM SCT120
     FM192000 24007KT P6SM SCT150=

USA.gov is the U.S. government's official web portal to all federal, state and local government web resources and services.